Theta_e
304 304 305 306 306 307 308 309 309 308 308 308 307 310 314 312 310 308 305 304 307 313 312 307 306 305 303 303 304 303 304 303 303 303 303 303 304 305 305 306 306 306 306 306 306 305 305 306 306 306 305 305 301 296 295 296 297 300 303 303 301 300 303 305 306 306 306 303 299 298 298 301 304 304 304 304 304 306 305 304 304 304 304 305 305 306 307
305 304 304 305 306 307 308 308 309 308 308 308 310 315 315 311 310 310 306 304 309 314 312 308 307 304 303 304 303 302 304 304 304 304 305 303 302 305 307 305 305 306 305 304 305 305 305 306 306 304 303 304 296 293 294 295 299 301 302 302 300 302 304 305 305 306 306 304 302 301 301 303 305 304 304 303 305 307 304 302 303 303 304 305 305 305 306
306 304 304 305 305 306 307 308 308 308 308 307 310 315 315 312 311 312 308 305 309 311 309 309 307 304 305 305 303 304 304 303 302 303 304 302 301 304 306 304 303 305 305 305 305 304 304 304 304 302 302 302 296 294 293 294 298 299 297 296 298 302 304 304 304 305 305 305 304 304 304 304 304 305 305 304 306 307 304 302 303 304 305 305 305 305 305
307 305 304 304 305 306 306 307 307 307 308 306 307 310 313 314 312 311 311 309 308 305 305 307 306 305 306 306 304 304 304 303 302 303 303 302 301 304 305 303 303 305 306 307 306 306 305 303 303 304 304 302 298 294 293 294 296 296 294 293 296 301 304 303 304 305 305 305 305 305 305 304 304 306 307 306 306 305 303 302 303 304 304 304 305 306 306
307 306 305 304 305 305 305 307 307 307 307 306 306 309 312 312 308 306 309 311 309 306 305 306 306 306 306 305 304 305 305 304 305 305 305 303 302 305 305 304 305 306 306 306 306 307 306 304 303 305 305 302 297 293 294 296 295 294 295 294 297 302 305 304 305 306 305 304 304 304 304 303 303 305 307 307 308 305 303 302 303 304 304 304 304 305 305
308 307 306 305 305 305 305 306 306 307 307 305 308 310 309 308 304 302 305 308 307 306 305 305 307 307 305 304 303 305 305 305 305 305 304 303 303 305 306 306 306 305 305 305 305 306 305 305 306 306 303 301 299 298 297 297 294 295 296 295 296 301 304 304 305 305 303 301 302 302 303 303 303 304 304 304 306 308 307 305 303 303 303 303 304 304 304
307 308 307 305 305 305 306 306 306 307 306 305 309 310 306 305 303 301 303 305 303 301 302 306 309 307 305 304 304 305 306 306 305 303 304 305 304 304 306 307 306 304 304 305 304 305 304 304 307 306 303 302 302 302 302 299 296 296 298 297 296 299 304 305 304 303 302 301 303 304 304 303 303 303 304 304 304 307 309 307 304 302 303 303 303 303 303
306 308 307 306 306 305 306 306 306 307 306 306 309 308 306 307 306 304 304 303 300 298 300 306 310 307 305 305 304 304 307 307 305 303 304 307 306 305 306 307 305 305 305 305 305 305 303 303 304 303 302 303 302 301 301 300 298 297 298 298 296 298 304 305 302 303 304 304 305 304 303 302 303 303 304 304 303 304 306 305 303 303 304 303 303 303 303
306 307 307 307 306 305 306 306 306 307 307 306 307 304 302 303 303 305 307 303 300 301 301 304 307 305 304 306 304 305 307 306 305 305 303 304 306 305 305 306 305 305 305 305 305 303 300 301 302 300 300 301 300 300 299 298 299 300 299 298 297 297 301 303 302 303 306 306 305 304 303 304 305 305 305 303 303 303 304 305 304 304 305 305 305 304 304
305 306 306 307 307 306 306 306 306 307 307 305 306 303 301 301 302 305 308 304 300 302 303 304 306 304 303 305 304 305 306 303 303 306 304 302 303 302 302 304 304 304 306 306 303 298 296 297 298 297 297 298 298 298 299 298 299 300 299 298 298 298 300 303 303 303 305 305 304 304 304 304 305 306 306 304 303 303 304 305 304 304 304 305 305 304 304
304 306 306 306 307 306 306 306 305 306 307 305 305 302 301 306 310 308 308 305 301 301 304 304 304 303 303 304 304 304 304 303 303 305 304 304 302 299 300 303 302 303 305 302 295 292 292 291 291 293 294 296 297 298 298 298 298 298 298 299 298 297 299 302 301 302 304 305 304 304 304 303 303 305 306 305 303 304 304 304 304 304 303 304 304 304 303
303 305 305 305 306 306 307 306 304 305 306 305 305 303 300 305 310 309 308 306 302 302 303 301 302 303 303 303 303 303 303 303 303 303 304 305 303 300 300 302 302 303 300 293 291 291 291 291 293 294 295 296 297 298 298 298 298 297 297 298 298 298 299 301 301 301 303 304 304 304 304 302 303 305 305 304 303 303 303 303 303 304 304 304 305 304 303
302 304 304 304 305 306 306 307 305 303 304 305 305 304 301 303 307 309 307 304 302 302 302 301 301 302 302 302 303 302 301 300 298 298 301 303 303 303 302 301 302 300 293 291 292 293 297 301 301 300 299 298 298 299 300 300 299 298 296 296 297 299 300 301 301 301 303 304 304 304 304 303 304 305 304 304 303 303 303 304 304 304 304 304 304 303 302
302 303 304 304 304 305 306 307 306 304 303 304 304 303 301 302 305 307 307 304 301 298 299 303 304 302 301 303 303 302 301 299 297 298 300 301 302 303 302 299 297 294 291 293 295 296 300 303 303 302 303 301 300 302 303 301 299 299 298 297 296 298 300 301 301 302 302 302 303 303 304 304 305 305 304 303 302 302 302 303 304 303 303 303 302 302 302
302 302 303 303 303 304 305 306 307 306 303 303 303 303 302 302 303 305 306 305 302 299 299 303 304 302 302 302 301 303 303 302 301 300 299 299 300 301 299 295 292 290 291 294 298 300 302 302 302 303 304 303 302 302 303 302 300 297 297 297 296 296 298 300 301 302 301 301 302 303 303 304 304 305 304 302 301 301 301 303 304 303 302 302 302 302 302
302 302 302 303 303 304 304 305 306 306 305 304 303 303 302 301 302 303 305 307 307 305 304 303 301 301 302 301 300 302 304 304 304 303 302 303 302 300 296 290 288 290 293 296 299 301 302 302 301 302 303 302 302 302 302 302 302 298 295 295 296 296 297 298 299 301 302 301 302 303 303 304 304 305 304 302 301 302 302 303 304 303 302 302 302 302 302
302 302 302 302 302 303 304 305 306 306 306 305 304 304 303 302 302 303 306 307 306 304 302 299 299 301 303 303 302 302 302 302 302 302 305 305 301 300 299 292 290 292 297 300 301 303 302 302 302 303 303 302 300 301 302 301 302 301 298 297 298 298 298 299 300 301 302 302 302 303 303 304 304 305 303 301 301 302 302 304 304 303 302 302 302 301 301
300 301 301 301 301 301 303 304 305 306 305 305 305 304 303 303 304 304 306 307 305 303 299 297 299 303 303 303 304 302 301 303 302 302 305 304 301 301 302 298 297 298 298 301 303 303 302 302 301 302 303 301 299 300 302 301 302 302 301 301 302 301 300 300 301 301 302 302 303 302 303 304 304 304 303 301 301 302 303 304 304 302 302 302 301 301 301
299 300 301 301 300 300 301 302 304 305 305 305 305 305 303 303 304 304 306 306 305 303 299 295 298 301 299 299 302 301 299 302 303 304 307 306 302 299 299 297 299 301 300 301 302 301 302 302 300 299 301 302 300 301 301 301 301 301 301 302 303 303 301 300 299 300 301 302 302 302 303 303 303 302 302 302 302 302 302 302 302 302 301 301 301 301 299
297 298 299 300 300 300 300 301 302 303 304 305 305 305 304 304 304 304 305 304 302 302 299 296 298 300 299 300 303 303 302 304 303 304 307 306 301 300 302 302 301 301 302 303 303 301 301 303 301 299 300 302 301 301 301 302 302 302 302 303 302 302 302 302 302 302 302 301 301 302 302 302 302 302 302 302 302 302 301 301 301 301 300 299 298 297 296
296 297 298 299 299 300 300 300 300 302 303 304 305 305 304 304 305 305 305 305 304 303 301 298 297 299 299 299 300 300 302 304 303 302 305 304 300 302 305 304 302 301 301 302 303 302 301 301 301 299 301 302 301 301 302 303 303 302 301 301 302 301 301 302 302 302 302 301 301 302 302 302 302 302 302 302 301 301 299 299 299 299 297 296 295 295 294
295 296 297 297 298 299 299 300 299 300 302 303 304 304 304 304 304 305 305 305 303 302 300 298 298 298 298 298 297 297 298 299 297 297 300 302 301 301 302 302 302 301 299 299 302 303 301 300 301 300 301 302 302 302 302 302 303 302 299 299 301 302 301 301 301 302 302 301 302 302 302 302 302 302 301 301 299 298 296 296 297 296 295 295 294 294 293
294 295 296 296 297 297 298 299 299 299 300 302 304 304 303 302 303 304 304 303 301 299 299 299 300 300 299 298 297 297 297 297 297 297 297 300 303 301 301 301 301 299 298 299 301 302 301 301 301 300 301 301 301 302 302 301 302 302 301 301 302 301 301 300 300 301 302 301 302 302 302 301 301 300 299 298 297 296 295 294 294 294 294 294 293 293 292
294 294 294 295 296 296 297 298 299 298 298 300 303 304 303 303 303 303 303 303 303 302 301 301 301 303 301 299 298 298 298 298 299 298 296 298 302 303 301 299 298 299 300 298 298 298 299 300 298 298 299 300 300 300 302 302 303 302 302 302 302 301 299 299 300 301 301 301 302 300 298 298 299 299 298 296 295 294 294 293 293 293 293 293 292 292 292
294 294 294 294 295 296 297 297 298 298 297 297 300 301 302 302 302 303 304 303 304 305 305 304 302 300 299 299 299 299 299 298 298 298 297 297 299 302 302 298 296 299 300 298 296 297 299 300 299 299 300 301 300 300 301 302 302 302 301 301 302 300 298 299 300 300 300 301 300 296 294 296 296 296 296 295 294 294 293 293 293 292 292 292 292 292 291
294 293 293 294 294 296 296 296 297 298 298 297 298 299 300 300 300 301 302 301 302 304 305 305 303 299 299 300 299 298 298 298 297 298 298 297 297 298 298 297 296 297 297 296 297 298 299 300 300 300 301 301 299 299 301 301 301 301 300 300 301 300 299 299 299 299 300 300 297 293 293 294 293 293 294 294 293 293 292 292 292 292 291 291 291 291 290
293 293 293 293 294 295 296 296 296 297 298 298 298 298 298 299 299 300 301 300 302 305 305 305 303 300 299 299 299 298 298 297 297 298 298 298 297 296 296 298 299 298 297 296 296 296 297 298 298 299 300 298 296 297 299 298 298 299 299 299 299 298 299 298 298 298 299 297 294 292 292 292 291 292 293 292 292 292 292 291 291 291 291 290 290 290 290
293 293 293 293 294 296 296 296 296 296 297 298 299 299 299 299 299 300 300 300 302 305 305 304 302 301 301 300 298 297 297 296 296 297 298 298 297 296 295 297 299 298 297 298 298 297 297 298 299 299 298 296 296 298 299 297 297 299 298 297 296 296 296 295 295 295 295 293 292 291 291 290 291 291 291 291 291 291 291 290 290 290 290 290 289 289 290
293 293 293 293 294 296 296 296 296 296 297 299 300 300 299 298 298 300 300 300 301 302 303 303 302 301 302 301 298 297 297 297 296 297 297 297 296 295 295 297 299 298 297 297 298 299 299 299 299 299 298 296 297 300 299 299 300 299 297 295 294 294 293 293 292 292 292 291 291 291 291 291 291 291 291 291 291 291 290 290 290 290 290 290 289 290 290
293 293 293 294 295 296 296 296 296 296 297 299 300 301 302 301 299 299 300 300 300 300 302 304 303 301 300 300 299 298 297 296 296 296 296 295 294 293 294 296 297 297 296 296 297 298 298 298 298 298 296 296 298 300 300 300 300 299 295 293 293 292 292 292 291 291 291 290 290 290 290 290 291 291 291 291 291 290 290 290 290 290 290 290 290 290 290
293 294 294 294 295 296 296 295 296 296 297 299 300 302 304 303 299 298 299 300 299 299 301 303 302 300 299 298 297 297 297 296 296 296 295 294 294 293 292 293 295 296 297 297 297 297 297 298 298 298 296 295 297 300 299 299 300 299 295 293 292 291 291 291 291 291 290 290 290 290 290 290 290 290 290 290 290 290 290 290 290 290 290 290 290 290 290
293 294 294 294 295 296 296 295 295 296 297 298 299 299 300 300 298 298 299 299 298 299 301 302 301 300 300 298 296 296 297 296 296 296 296 296 295 294 292 293 295 296 296 297 297 297 296 297 298 298 297 296 297 298 298 298 299 297 294 292 292 291 290 290 290 290 290 290 290 289 289 289 289 289 289 289 290 289 290 290 290 289 290 290 290 290 290
293 293 294 294 295 296 296 295 295 296 297 299 299 299 299 298 299 299 299 299 297 296 298 301 302 300 299 298 297 297 297 297 297 298 297 297 296 296 296 295 294 295 296 296 297 297 297 296 296 297 297 297 297 297 298 298 296 294 292 291 291 290 290 290 290 289 290 290 289 289 289 289 289 289 289 289 290 289 289 289 289 289 289 289 289 289 289
293 293 294 294 295 295 296 295 296 296 297 298 299 300 300 299 298 298 298 298 298 297 298 300 301 300 299 299 299 298 296 297 298 297 297 297 296 296 297 297 296 296 297 296 297 298 297 296 297 298 297 296 296 297 298 296 293 292 291 291 290 290 290 290 289 289 289 289 290 289 289 289 289 289 289 289 289 289 289 289 289 289 289 289 289 289 289
292 293 294 294 295 296 296 296 296 297 297 298 299 300 300 299 299 299 298 298 299 300 300 298 299 299 299 300 300 298 296 297 297 296 297 297 295 295 297 297 296 297 297 296 297 298 298 297 298 298 297 296 296 297 296 293 291 291 290 290 289 290 289 289 289 289 289 289 289 289 290 289 289 289 288 288 288 288 288 288 289 289 289 288 288 288 289
293 293 294 294 295 296 296 295 296 298 298 298 299 299 300 300 299 298 298 298 299 301 301 300 299 298 298 298 298 297 296 297 297 296 296 297 296 295 295 296 297 298 297 296 297 298 298 297 297 298 297 296 296 295 293 291 290 290 290 290 290 290 289 289 289 289 289 289 289 289 289 289 288 288 288 288 288 288 288 288 288 288 288 288 288 288 288
293 294 294 294 295 295 295 295 295 297 298 298 298 299 299 299 299 299 299 298 298 298 299 300 300 297 296 297 298 297 297 297 297 296 296 296 296 295 294 296 298 298 297 297 299 299 298 296 296 298 298 296 294 293 291 290 290 290 290 290 290 289 289 289 289 289 289 289 289 289 288 288 288 288 288 288 288 288 288 288 288 288 288 288 288 288 288
295 295 294 294 295 296 296 295 295 297 299 298 298 298 298 297 298 299 297 296 297 297 297 298 298 296 295 297 297 297 297 296 296 296 295 295 295 295 294 295 297 296 296 297 297 296 296 296 295 295 296 295 293 292 291 290 291 290 290 290 289 289 289 289 289 288 288 288 288 288 288 288 288 288 288 288 288 288 288 288 288 288 288 288 288 288 288
295 296 295 295 296 296 296 295 296 299 299 297 297 298 298 296 298 299 296 294 296 297 296 296 296 295 296 296 296 295 295 295 295 295 295 295 295 295 294 295 295 294 295 296 295 294 296 296 293 293 295 295 293 291 291 290 290 290 290 289 289 289 289 289 288 288 288 287 287 288 288 288 288 288 288 288 288 288 288 288 288 288 288 288 288 288 288
295 295 295 295 296 296 295 296 297 298 298 297 296 297 297 297 298 297 296 297 298 297 295 295 295 293 293 294 294 294 295 294 294 294 294 295 295 294 294 295 294 293 294 296 294 293 295 296 294 294 296 294 292 291 290 289 289 289 289 289 289 289 289 289 288 288 288 288 288 288 288 288 288 288 288 288 288 288 288 288 288 288 288 288 288 288 288
294 295 295 295 296 295 295 296 296 296 296 297 298 298 298 297 295 292 294 298 299 295 293 293 294 294 293 292 292 294 294 293 293 293 293 294 295 295 295 294 292 292 295 295 293 292 293 295 295 295 295 293 291 290 290 289 288 289 289 289 289 289 288 288 288 288 288 288 288 288 288 288 288 288 288 288 288 288 288 288 288 288 288 288 288 288 288
293 295 295 295 294 294 294 295 296 296 298 300 299 297 296 295 294 293 295 296 295 293 293 293 293 293 293 292 292 293 293 292 292 293 293 294 295 295 294 292 290 293 296 294 291 292 293 294 295 295 293 291 290 289 289 289 288 288 289 289 288 288 288 288 288 288 288 288 288 288 288 288 288 288 288 288 288 288 288 288 288 288 288 288 288 288 288
294 294 293 294 294 294 295 296 297 297 299 300 299 298 297 295 294 294 294 293 291 292 294 293 292 292 292 292 291 292 292 292 292 292 294 294 292 292 292 292 292 294 294 292 292 294 295 294 295 294 291 289 289 289 288 288 289 288 288 288 288 288 288 288 288 288 288 288 288 288 288 288 288 288 288 288 287 288 288 287 287 288 288 288 288 288 288
294 293 293 294 295 296 297 298 297 297 298 298 297 297 297 296 294 294 294 294 293 293 293 292 291 292 292 291 291 291 292 292 292 292 292 292 291 291 294 296 295 294 293 292 292 294 294 294 294 293 290 289 289 289 288 288 288 288 288 288 288 288 288 288 288 288 288 288 288 288 288 288 287 287 287 287 287 287 287 287 287 287 287 287 287 287 287
296 296 297 298 297 296 296 298 297 296 297 297 295 295 295 295 295 295 294 292 292 293 292 291 291 291 291 291 291 290 290 291 292 292 291 291 292 293 294 293 292 291 292 293 292 293 294 294 293 291 289 288 288 288 288 288 288 288 288 288 288 288 288 287 287 288 288 288 288 287 287 287 287 287 287 287 287 287 287 287 287 287 287 287 287 287 287
295 294 296 298 297 294 295 298 297 295 294 294 295 295 295 295 295 294 290 288 290 292 291 290 289 290 290 291 290 290 288 289 291 291 290 290 293 293 292 291 291 292 293 293 293 293 294 294 291 289 289 288 288 288 288 288 288 288 288 288 287 287 287 287 287 287 287 287 287 287 287 287 287 287 287 287 287 287 287 287 287 287 287 287 287 287 287
294 292 293 297 297 294 294 296 295 292 292 292 292 291 290 290 290 290 288 287 288 290 289 288 288 289 289 288 289 289 288 287 289 290 289 289 292 292 290 290 293 293 292 293 294 293 292 291 289 288 289 289 288 288 288 288 288 288 288 288 288 288 287 287 287 287 287 287 287 287 287 287 287 287 287 287 287 287 286 286 286 286 286 286 286 286 287
295 293 294 296 296 293 293 293 291 289 289 288 286 286 285 286 288 290 288 286 286 288 289 288 289 290 289 288 288 289 288 287 289 290 288 288 290 291 290 291 292 291 290 291 292 291 290 289 289 289 289 289 288 288 288 288 288 288 288 288 288 287 287 287 287 287 287 287 287 287 287 287 286 287 286 286 287 286 286 286 286 286 286 286 286 286 286
292 292 293 292 291 290 290 289 290 291 290 286 283 284 285 287 289 289 287 285 286 287 287 287 288 289 289 287 286 288 287 287 287 288 287 289 291 291 290 291 292 292 291 291 290 289 288 288 289 289 290 289 288 288 288 288 288 288 287 288 287 287 287 287 287 287 287 287 286 286 286 286 286 286 286 286 286 286 286 286 286 286 286 286 286 286 286
291 292 292 290 290 291 290 288 290 293 291 288 287 287 287 287 289 289 287 286 287 287 287 287 288 288 287 287 287 288 287 285 285 286 288 289 290 289 289 291 292 291 290 289 288 288 288 289 289 289 289 289 288 288 288 288 288 288 287 287 287 287 287 287 286 286 286 286 286 286 286 286 286 286 286 286 286 286 286 286 286 286 286 286 286 286 286
291 291 290 289 289 290 290 290 291 292 291 290 290 289 288 288 290 289 287 287 288 288 288 288 287 287 288 288 288 288 286 284 284 286 288 288 286 287 289 291 290 289 288 288 288 288 289 289 288 289 289 288 288 288 288 288 287 287 287 287 287 286 286 286 286 286 286 286 286 286 286 285 286 286 286 286 286 286 286 286 286 285 285 285 285 285 285
292 290 289 287 287 288 289 290 291 291 291 290 290 289 289 289 290 288 287 288 289 289 288 287 287 288 289 289 287 287 287 287 287 288 288 287 286 286 289 289 288 288 288 288 288 288 289 289 288 289 288 288 288 288 287 287 287 287 286 286 286 286 286 286 286 286 286 286 285 285 285 285 285 285 285 285 286 286 285 285 285 285 285 285 285 285 285
Wind_Speed
33 31 28 22 14 9 7 6 6 7 6 5 3 3 2 3 3 7 13 6 3 3 6 4 4 5 2 1 2 2 2 1 1 1 1 1 1 1 0 1 2 2 2 2 3 3 1 1 3 3 2 1 2 3 4 4 3 3 2 1 1 1 3 4 7 8 5 3 6 5 2 1 2 3 3 3 3 2 4 6 4 5 7 6 6 8 9
33 32 29 25 19 12 8 8 9 10 11 8 5 4 3 3 4 6 15 10 2 1 5 4 4 4 2 2 3 1 2 3 3 2 4 3 2 2 2 1 2 2 2 2 3 4 2 1 1 2 2 1 1 2 3 3 3 2 2 3 3 1 2 4 6 7 5 1 2 2 0 2 4 5 3 3 1 1 0 4 2 4 10 10 8 8 9
32 33 31 27 23 15 8 7 10 12 10 7 5 4 3 2 3 2 13 18 10 3 2 3 5 4 3 4 3 1 2 3 2 2 3 3 2 2 2 1 2 2 1 1 2 2 2 1 1 0 2 0 2 1 3 3 3 4 4 4 3 3 4 4 4 6 8 7 6 6 6 6 7 7 5 3 4 4 2 4 4 5 8 9 8 9 11
30 32 32 29 25 19 11 6 8 9 6 5 7 6 2 1 3 1 5 11 9 4 3 3 4 3 2 3 3 3 2 1 1 1 1 1 1 2 1 1 1 1 2 3 2 1 1 1 2 2 3 1 2 0 2 3 2 4 5 4 3 3 4 5 5 6 7 8 9 10 11 10 10 13 12 5 4 5 3 4 5 6 7 9 10 11 13
29 31 32 31 27 22 15 8 8 10 9 8 9 7 3 1 3 2 1 3 4 5 5 5 3 1 1 1 2 4 4 1 1 1 0 1 1 2 0 1 2 3 4 4 3 3 2 1 1 2 3 2 1 2 1 1 1 2 2 2 2 3 5 3 4 7 10 12 14 15 12 12 14 15 15 10 3 7 5 6 9 8 7 9 12 14 16
29 30 31 31 28 24 19 12 9 10 7 4 6 4 4 3 3 1 1 1 2 4 4 4 5 5 3 2 1 3 3 3 2 0 1 1 0 1 0 3 5 5 5 4 4 7 6 1 0 2 2 3 2 2 2 1 1 1 1 2 1 4 5 0 2 6 12 14 16 16 13 13 15 13 14 16 9 6 8 10 12 9 7 11 15 18 19
29 29 29 30 28 25 21 15 12 9 5 4 8 6 3 3 4 1 2 2 2 2 2 3 3 6 5 3 2 4 4 4 2 1 1 0 1 1 2 5 7 5 3 3 4 7 6 3 1 1 1 3 3 2 1 2 2 2 1 1 0 3 3 1 0 7 11 14 15 13 11 13 14 13 14 16 14 9 8 10 12 12 14 17 18 21 21
30 30 29 29 29 27 23 18 15 15 14 15 13 8 2 2 4 2 2 4 3 1 2 3 2 5 4 2 2 3 3 3 2 0 2 2 3 3 5 7 9 4 1 3 3 5 6 5 4 2 2 3 2 2 2 1 1 2 1 0 1 2 2 3 1 8 10 10 9 6 9 13 14 15 14 12 13 12 8 8 9 10 13 16 17 18 17
30 30 30 30 29 29 27 22 17 16 19 19 12 6 5 6 4 3 4 5 2 2 0 1 2 4 4 3 2 2 3 3 2 0 1 2 3 4 5 7 7 2 1 3 2 4 5 7 6 3 4 5 3 2 3 4 3 2 1 0 1 2 3 1 2 8 9 8 9 11 14 14 12 13 13 12 12 10 7 5 6 8 9 12 13 12 11
30 30 31 30 30 29 28 26 22 18 20 19 9 3 6 7 4 1 3 4 2 2 1 1 2 3 3 2 1 2 2 2 2 0 1 0 1 2 3 5 5 2 2 2 2 3 5 7 6 4 5 6 6 5 5 4 4 3 2 1 1 1 4 4 4 6 9 11 15 16 16 11 6 5 6 9 11 11 9 6 7 10 9 9 9 10 11
30 30 31 30 30 30 29 28 25 20 19 19 12 6 5 5 4 1 2 5 3 3 2 3 3 2 1 1 1 1 1 0 1 1 1 1 2 1 2 3 3 3 2 2 1 2 4 5 5 5 5 6 6 6 6 4 5 5 3 2 1 1 3 4 3 3 9 14 16 14 11 6 4 5 5 8 10 11 11 9 9 11 11 11 12 14 14
30 30 30 30 30 29 29 28 27 22 20 20 18 13 8 7 6 1 2 6 3 2 2 3 2 1 1 1 1 1 1 1 1 2 2 1 2 2 2 1 3 2 1 1 1 3 3 3 3 3 3 4 4 4 4 5 5 4 4 3 2 2 4 4 2 3 7 11 11 9 7 6 9 12 8 5 7 8 11 14 15 14 14 15 16 14 13
29 29 28 28 29 28 28 27 27 24 20 17 19 17 13 11 9 3 3 5 3 1 3 3 1 2 1 1 1 0 1 1 1 1 2 2 1 1 1 1 3 2 2 3 4 3 4 3 2 2 3 3 3 3 5 7 6 4 4 4 4 4 4 3 3 4 6 7 5 5 7 12 18 17 6 1 2 6 10 13 13 13 14 14 12 11 12
28 28 27 27 27 27 27 26 25 24 21 17 19 19 15 12 9 3 2 5 4 1 1 2 2 1 1 1 1 0 1 1 1 1 1 1 2 1 1 1 2 2 2 4 3 2 3 4 3 2 1 2 2 1 3 5 6 5 5 5 5 5 4 3 4 4 4 5 6 7 10 13 13 8 0 2 1 3 5 9 12 14 12 7 6 11 15
27 27 26 26 26 25 25 24 22 21 20 18 18 19 16 12 10 6 3 4 6 3 1 1 2 2 2 1 0 1 1 1 1 1 2 1 1 1 3 2 1 2 3 3 2 2 2 3 4 5 4 3 3 2 2 2 3 4 3 4 5 6 5 3 4 3 3 5 7 7 8 8 7 3 5 5 2 1 1 7 11 9 4 3 8 14 16
27 26 26 26 26 24 23 22 21 19 18 17 17 18 17 14 11 11 7 4 4 3 1 2 3 2 2 2 0 1 1 2 2 1 1 2 2 1 3 2 1 2 3 3 2 2 2 2 3 4 4 3 3 5 6 5 2 2 3 3 5 6 5 3 4 6 4 5 6 6 5 7 9 7 4 6 2 1 2 7 8 2 2 6 11 14 15
26 25 26 26 26 25 23 21 20 18 17 16 15 17 17 13 9 8 6 3 3 4 3 3 2 0 0 1 1 0 1 1 1 1 1 2 1 1 2 2 1 2 3 3 2 2 2 2 2 4 3 1 2 5 5 6 5 3 2 3 5 5 4 4 6 7 6 5 6 6 5 8 13 11 4 4 3 1 4 9 6 4 9 13 12 13 16
26 24 24 25 26 25 24 21 20 18 16 15 15 17 18 14 9 8 6 3 3 4 3 2 1 0 1 1 1 1 1 1 1 1 1 1 2 2 2 1 1 2 2 3 4 3 2 1 1 3 3 1 0 4 4 4 5 6 5 6 5 3 3 4 5 6 6 7 7 6 6 9 11 8 4 2 2 3 6 9 9 12 17 17 14 15 16
25 25 25 25 26 26 24 22 20 18 16 14 12 14 17 15 10 8 6 3 3 3 2 1 0 0 1 1 0 1 0 1 2 2 2 2 2 1 1 1 0 0 1 3 3 2 2 2 0 1 4 2 1 3 4 3 4 6 8 8 6 2 2 3 4 4 5 5 6 7 7 6 4 2 2 2 3 7 9 12 15 17 18 18 17 17 17
24 24 25 24 25 25 25 23 21 18 17 14 12 16 20 17 12 9 7 5 4 4 3 1 1 1 2 2 3 2 1 1 2 3 4 3 1 1 1 0 1 1 2 3 3 1 2 3 1 1 3 3 1 2 5 6 7 7 7 6 4 2 2 4 4 3 4 5 4 5 6 2 2 3 2 2 7 13 13 14 16 17 17 18 17 16 16
24 24 24 24 25 24 24 24 22 19 17 14 11 15 20 18 15 12 10 10 8 4 2 2 2 3 4 5 6 6 4 4 4 3 3 2 2 2 2 2 3 3 2 3 3 1 1 2 2 1 3 3 2 2 5 7 7 5 4 4 3 2 2 6 5 3 4 6 4 6 9 8 8 11 11 10 13 15 15 14 14 14 15 14 13 14 16
24 24 24 24 24 24 23 24 24 22 21 16 10 13 18 18 16 13 12 15 13 8 6 7 6 7 9 9 10 9 7 6 5 2 2 1 1 1 1 1 1 1 1 1 3 2 2 2 2 3 4 4 3 5 6 6 6 3 1 1 3 4 3 3 5 4 6 8 10 12 14 15 15 14 13 16 17 17 17 16 14 12 12 12 11 13 16
22 23 23 23 24 23 23 23 23 23 22 17 11 15 19 18 16 15 16 19 17 11 8 8 7 8 9 10 11 12 11 9 6 3 1 1 1 1 1 0 0 1 1 1 2 3 3 3 3 3 5 3 2 5 6 5 6 5 3 4 6 3 1 2 4 6 9 11 12 12 14 16 17 15 14 16 17 16 16 16 14 12 13 12 12 13 15
21 21 22 22 22 22 22 22 22 22 22 18 13 13 15 14 13 13 12 11 8 4 4 3 2 3 5 6 7 8 10 10 8 5 2 1 0 1 1 2 2 3 2 2 1 2 2 3 1 1 3 2 1 4 7 6 5 4 5 6 4 3 5 4 7 9 10 9 8 14 18 18 17 15 15 17 17 16 14 13 12 13 13 13 13 14 15
19 20 20 20 20 21 21 20 19 19 21 18 13 10 11 11 10 9 8 6 3 2 2 2 2 2 3 4 4 6 7 8 7 5 0 4 4 2 1 2 3 3 1 1 2 2 3 3 2 3 4 3 3 4 7 6 4 3 4 6 6 4 4 7 9 11 12 11 13 20 21 18 16 16 15 16 17 16 14 12 12 13 14 14 16 16 15
18 18 19 19 19 18 19 19 18 16 17 17 16 15 16 16 13 9 7 5 2 1 2 2 2 2 2 3 4 4 5 7 8 6 2 4 7 6 4 2 3 2 0 1 2 3 4 4 4 5 5 3 2 4 6 5 6 6 5 7 9 7 6 8 11 11 11 10 16 22 20 17 18 20 19 18 18 17 16 16 16 16 17 17 18 20 19
17 17 17 17 17 17 17 18 17 14 12 13 17 20 21 20 16 12 9 5 1 0 2 2 3 2 2 3 4 4 5 8 10 8 4 4 5 6 6 5 3 2 2 2 3 2 3 3 3 5 5 1 0 3 4 4 5 5 4 6 9 8 7 8 10 9 8 10 16 18 15 13 15 18 19 19 18 17 17 18 18 18 18 18 19 22 23
16 16 16 16 16 16 17 17 18 16 10 6 10 16 21 23 20 16 12 9 4 1 2 3 3 3 3 2 2 6 8 10 11 7 3 3 4 4 6 6 4 3 3 3 2 2 3 4 3 3 3 1 1 4 4 2 2 0 2 6 8 7 8 9 8 7 9 13 15 14 11 11 14 17 18 17 15 15 17 19 19 18 19 20 20 21 21
15 15 16 15 15 15 16 16 17 17 12 4 2 6 13 19 21 17 12 10 7 3 2 3 3 3 2 2 2 6 11 13 9 4 2 3 3 3 4 5 5 3 2 3 3 3 4 4 3 4 2 0 2 4 3 3 2 1 3 6 7 7 8 9 9 9 11 13 14 14 13 14 16 18 17 16 16 16 17 19 19 18 21 23 20 19 21
14 14 14 14 14 15 16 16 17 17 14 6 1 1 3 8 15 18 12 7 5 3 1 1 1 2 3 2 2 7 13 13 7 3 3 4 3 4 3 4 5 4 3 3 3 3 4 4 3 3 2 1 2 4 3 4 3 2 6 7 8 9 9 9 9 10 11 12 13 14 15 15 15 16 16 18 21 22 19 19 21 23 26 27 22 18 23
13 13 13 13 14 14 15 16 17 17 14 8 3 2 1 1 9 15 11 6 5 3 0 1 2 2 2 2 2 8 14 11 5 3 4 4 3 4 4 3 4 4 3 3 2 2 3 3 3 3 1 2 3 4 3 5 5 2 8 11 10 10 11 11 10 11 12 14 14 15 15 14 14 15 15 18 25 27 22 20 26 29 30 30 28 25 27
12 12 12 12 12 13 14 15 15 14 15 14 10 7 4 2 8 11 8 6 5 2 0 1 2 2 1 1 1 9 16 10 3 3 3 3 2 3 4 3 3 4 3 3 3 2 2 3 4 4 1 3 3 3 3 4 5 6 11 12 10 11 13 12 12 13 14 15 16 15 15 15 15 16 18 21 27 29 24 23 30 34 32 32 32 30 30
12 12 12 12 11 11 12 14 13 11 14 17 15 12 11 9 9 9 5 4 5 4 2 2 1 1 1 2 2 9 15 7 2 3 3 3 1 2 3 3 2 3 4 3 2 2 1 2 2 3 1 3 2 3 3 2 4 8 11 12 11 13 13 13 14 14 13 15 15 15 15 18 19 21 24 25 26 27 28 29 32 32 29 28 27 27 29
12 11 11 11 10 9 10 13 13 10 12 12 10 10 13 14 15 14 9 4 4 4 4 3 1 1 2 2 3 6 12 5 2 3 3 1 1 2 3 1 0 2 4 3 2 2 1 1 2 2 1 2 2 3 1 4 8 10 11 12 13 14 14 13 13 14 14 16 17 17 19 22 23 22 23 23 24 27 32 33 31 27 24 23 24 25 26
11 11 11 11 10 7 8 11 12 10 9 8 6 6 9 12 16 19 16 10 4 1 3 4 2 2 3 2 2 5 10 6 2 2 3 1 0 1 2 2 1 1 2 1 1 2 1 1 1 2 1 2 1 1 2 8 11 12 12 13 14 14 14 14 15 16 16 17 17 18 20 23 23 22 22 22 24 26 28 28 27 26 24 23 24 25 24
12 11 11 12 10 6 5 9 12 10 6 5 4 4 5 7 10 14 17 16 10 4 2 1 1 2 3 3 2 6 10 6 2 2 3 2 1 1 1 2 2 0 1 1 2 2 1 0 1 2 2 0 1 2 4 7 11 13 14 14 14 13 14 16 18 18 18 19 19 18 19 21 22 22 21 23 24 24 24 25 26 26 25 25 24 22 21
12 12 11 11 9 5 4 7 10 9 5 3 2 3 4 5 6 7 10 12 12 10 6 2 2 4 3 3 2 5 7 4 2 3 3 2 2 2 1 2 3 1 1 2 2 1 0 0 2 3 2 2 4 4 4 6 9 11 12 13 13 13 14 16 17 19 20 22 22 21 21 23 24 22 21 25 27 26 25 26 25 24 25 25 21 19 20
13 12 10 9 6 3 2 5 8 7 4 1 1 2 4 5 4 4 5 5 6 8 6 3 3 2 2 3 3 5 5 3 3 3 2 1 3 2 0 1 2 2 2 3 0 1 0 1 1 2 1 3 5 4 7 8 8 9 10 12 13 14 16 17 18 20 21 21 22 24 23 24 26 27 25 26 27 26 25 26 26 25 25 23 23 24 25
12 10 8 7 4 1 2 7 9 6 3 2 1 1 3 4 3 2 2 2 2 3 4 3 3 2 2 4 5 4 3 3 4 4 2 2 2 2 1 2 2 2 3 3 1 1 2 1 1 1 1 4 2 6 10 9 9 10 13 16 19 20 22 23 24 23 23 23 26 28 27 26 26 25 24 23 23 24 25 25 26 27 27 27 29 30 26
12 10 6 4 3 3 5 8 8 4 2 2 2 1 2 3 3 2 2 1 2 2 3 2 1 0 1 3 4 3 1 2 4 5 3 3 2 1 2 3 2 2 4 3 1 2 3 2 1 1 1 2 3 8 9 9 11 14 18 22 26 28 29 30 31 31 32 33 34 35 34 32 28 24 22 21 21 22 23 23 25 29 32 33 34 33 30
11 8 4 3 5 6 5 5 5 3 1 1 2 2 2 2 1 0 1 2 2 2 1 1 2 1 0 1 3 3 2 2 2 2 3 3 1 1 3 2 2 2 4 2 1 2 2 3 3 1 2 3 6 9 10 12 14 16 20 27 30 32 33 34 36 38 37 34 32 32 34 35 33 29 28 26 24 23 24 25 29 34 37 36 36 37 37
9 6 5 6 6 5 4 3 4 3 1 1 2 2 2 1 1 1 1 2 2 1 1 1 2 4 4 4 4 3 2 3 2 1 3 2 1 0 2 2 2 1 3 2 1 1 2 3 3 0 3 6 9 10 11 14 14 16 22 29 32 33 35 35 35 38 39 35 31 31 33 35 34 33 34 35 34 32 32 33 35 38 39 39 39 40 40
10 7 5 4 4 4 3 3 3 2 2 2 2 2 2 1 1 1 1 1 1 1 1 1 3 5 4 3 3 3 2 2 2 1 3 2 1 1 1 1 1 2 2 1 1 2 3 4 3 2 4 7 9 10 13 16 17 18 25 31 34 35 37 37 36 39 41 39 37 35 35 35 36 37 39 41 41 39 40 42 43 41 41 41 41 40 40
10 5 3 1 2 3 3 2 2 2 2 2 2 2 2 2 0 0 1 1 1 1 2 2 3 4 3 2 2 2 2 1 1 1 2 2 1 1 1 1 1 2 2 2 2 3 4 3 2 4 7 9 11 13 15 17 17 16 21 30 36 38 39 40 39 38 38 38 38 38 37 36 38 39 41 42 41 41 42 45 45 42 41 41 39 40 41
6 3 2 1 2 2 2 1 1 2 2 1 1 1 1 1 1 1 1 2 1 2 2 2 2 4 4 3 2 1 0 1 1 2 1 2 2 1 1 2 2 2 3 3 2 3 4 3 3 7 11 13 14 15 16 16 18 20 21 25 33 38 39 39 38 35 33 35 37 37 36 36 36 36 37 40 43 43 43 43 42 41 40 39 38 39 42
3 2 2 1 2 2 1 0 2 2 1 1 1 1 1 1 2 1 2 1 1 2 3 3 3 3 4 4 2 0 1 2 2 1 1 2 3 2 1 2 2 2 2 3 3 3 5 6 7 10 14 15 15 16 16 18 22 25 23 22 28 36 39 40 39 36 34 35 36 36 35 35 35 36 37 40 43 44 45 45 45 43 40 38 37 40 43
3 2 1 1 1 2 1 1 1 2 1 1 1 2 1 2 2 1 0 0 1 2 2 3 3 2 2 2 1 1 1 1 1 1 1 1 3 2 2 1 2 2 2 3 4 5 6 8 10 12 13 14 14 15 16 17 21 24 23 23 28 34 38 39 38 36 36 37 36 34 33 34 36 37 36 37 39 43 46 47 47 46 44 42 41 42 43
1 1 1 1 1 1 1 1 0 0 0 1 1 1 1 2 2 1 1 2 1 1 2 3 2 2 1 1 1 2 1 1 1 1 1 1 2 3 2 2 3 2 2 3 4 7 9 10 12 13 14 14 15 15 14 15 19 23 24 24 26 31 35 36 35 35 38 39 35 31 32 35 37 37 35 34 35 40 45 48 49 48 47 45 43 42 42
4 2 2 2 1 0 1 1 1 1 1 1 0 1 1 2 2 1 1 2 1 1 1 1 1 2 1 1 0 1 1 0 1 1 2 1 2 2 2 3 4 3 2 3 6 9 10 11 12 15 16 16 16 15 15 18 24 28 29 28 30 32 34 35 37 39 41 39 35 35 38 39 37 36 34 33 33 38 45 49 49 47 45 43 42 42 43
5 3 2 1 1 1 1 0 1 1 1 1 1 1 1 1 2 1 2 2 0 1 1 1 0 1 1 1 1 1 1 0 1 1 1 2 1 1 2 4 4 5 7 8 9 11 11 11 12 15 17 17 16 17 18 23 29 32 33 35 36 36 36 39 41 41 40 40 41 42 42 39 36 35 36 37 39 43 47 47 44 42 43 44 43 42 42
3 3 2 1 0 1 1 1 1 0 1 0 1 0 1 2 2 0 1 1 1 2 0 1 1 1 1 1 1 1 0 0 0 2 2 2 1 1 3 5 6 8 10 10 10 11 12 11 11 13 14 15 17 19 23 28 33 36 36 37 38 38 39 42 42 41 40 43 46 44 41 41 42 43 44 45 45 42 38 36 38 41 43 43 42 41 41
2 2 1 1 1 1 0 1 1 1 1 0 0 0 1 2 1 1 2 0 2 2 1 1 0 1 2 2 1 1 1 1 1 2 2 2 3 3 3 7 9 11 11 11 11 11 11 12 14 16 16 17 21 26 31 34 37 39 41 41 40 39 40 41 42 42 42 43 45 46 47 49 50 48 44 42 37 29 23 26 35 42 43 43 43 42 40
Wind_Direction
41 40 40 44 52 69 98 127 148 154 146 137 135 129 55 49 81 3 357 3 284 1 79 73 26 69 81 19 63 16 359 5 341 7 20 334 292 303 85 5 1 32 7 325 335 353 312 282 342 332 317 19 31 353 332 316 296 280 287 87 66 334 269 284 293 285 282 113 111 99 92 185 248 256 242 246 279 295 282 290 318 303 278 272 270 264 271
43 40 38 40 45 57 86 111 125 129 123 116 103 97 81 76 107 21 10 15 299 8 79 98 83 88 134 117 83 39 21 28 12 10 20 16 328 342 28 23 360 7 348 309 323 355 354 268 14 346 310 17 80 343 335 322 319 344 355 1 7 316 285 312 315 313 322 5 87 67 6 284 313 306 248 197 203 79 276 275 263 255 263 264 269 273 275
45 43 39 38 40 50 77 119 140 140 126 108 91 109 135 92 108 48 22 35 55 72 43 99 114 116 134 100 52 5 91 51 1 351 13 16 331 334 20 29 341 316 299 269 275 327 340 321 36 358 297 318 130 10 336 309 322 15 2 341 326 292 294 312 314 325 333 329 330 336 327 320 315 301 274 206 178 174 225 282 270 259 273 271 264 268 279
46 45 43 40 38 42 56 100 152 161 155 126 96 91 131 84 60 49 17 35 53 70 24 43 99 121 123 89 23 2 51 94 213 251 354 25 329 319 351 350 283 272 309 310 285 237 211 284 342 311 296 334 105 132 309 291 316 3 343 316 297 287 274 254 252 275 296 300 302 308 315 313 298 292 290 274 168 169 226 276 269 280 299 286 271 275 286
46 46 45 44 41 40 48 76 125 138 130 113 93 66 34 66 60 21 4 54 57 66 43 22 48 76 343 47 24 4 20 43 184 194 132 68 341 287 323 12 347 351 343 332 323 321 297 222 344 310 292 324 56 183 232 264 269 325 315 261 254 287 282 256 230 246 264 278 288 293 298 291 280 284 292 290 203 157 185 231 253 285 305 282 279 291 295
47 47 47 48 47 43 46 64 110 136 133 98 86 59 12 52 99 327 325 53 40 47 35 11 40 53 48 93 55 5 33 40 11 344 176 139 222 263 82 39 22 9 340 323 334 338 330 281 275 327 306 318 317 197 187 174 184 233 221 183 274 293 285 328 148 244 260 272 279 280 278 273 269 269 280 286 273 194 187 227 246 259 261 260 277 291 292
48 49 48 49 51 50 49 57 83 107 127 116 98 81 22 66 105 63 341 61 79 44 336 304 42 52 47 84 55 11 36 48 33 359 278 211 91 2 358 12 10 8 336 312 333 348 344 319 309 359 332 308 300 275 262 164 174 231 243 181 173 275 282 55 39 270 267 266 266 264 259 262 268 269 271 278 276 250 220 234 247 246 245 253 268 279 282
49 50 51 51 53 55 55 60 77 93 103 102 87 64 31 125 120 115 101 95 86 34 287 278 71 58 26 47 58 357 6 32 47 53 333 3 42 11 354 352 344 340 314 300 326 7 354 311 297 333 320 308 304 294 331 25 208 249 277 66 185 251 330 52 338 292 289 278 270 258 252 260 273 282 280 278 283 278 253 236 243 246 250 256 264 272 275
49 51 53 53 54 57 58 62 74 93 100 95 77 50 66 85 90 120 120 93 22 329 317 316 56 61 27 31 58 339 9 25 358 26 45 6 6 358 346 337 329 307 204 278 320 20 343 294 291 299 284 298 325 326 336 358 334 299 322 358 236 257 297 327 323 306 300 313 329 316 294 281 272 271 277 284 290 289 278 250 218 218 251 274 278 277 281
48 50 53 54 56 59 61 62 67 81 95 93 83 82 95 87 76 71 100 88 20 337 40 17 53 69 26 20 30 340 24 31 310 338 127 182 17 15 326 320 319 294 292 329 360 346 306 287 295 300 276 282 293 287 291 309 305 298 314 304 262 308 300 307 338 312 290 312 328 316 302 297 284 264 280 293 290 283 282 274 214 212 245 277 281 281 295
46 48 51 53 55 58 62 63 63 69 85 94 100 119 128 114 100 39 77 91 51 334 14 46 52 79 337 7 50 318 3 46 307 12 55 131 113 112 279 304 317 304 329 40 59 289 291 288 288 280 267 271 270 270 283 278 247 246 267 283 290 325 288 290 325 298 289 310 321 311 300 312 338 335 302 277 278 282 289 292 270 259 268 268 265 279 299
46 47 49 51 54 56 59 62 62 63 74 93 105 113 120 115 104 66 75 96 73 340 60 66 31 34 24 10 334 302 341 354 359 2 334 344 110 165 217 300 321 329 54 53 274 261 272 270 250 229 226 249 255 254 263 258 240 225 239 264 284 279 270 277 288 262 279 303 317 316 319 330 319 315 310 282 277 285 290 288 281 281 287 281 276 286 301
47 48 49 50 51 54 56 58 60 61 66 84 99 103 106 106 98 69 65 97 94 10 79 94 13 325 336 309 272 311 11 346 339 293 275 280 258 202 173 326 329 12 40 316 286 270 276 273 232 192 182 194 215 221 226 235 233 214 213 227 245 267 277 286 277 259 274 302 312 298 302 306 301 299 309 45 282 287 296 292 283 287 296 292 286 292 301
49 50 51 51 50 51 54 56 58 61 64 76 90 96 100 99 97 97 93 99 98 30 52 114 133 233 249 250 255 252 162 184 212 231 227 249 293 300 61 55 10 14 337 299 273 254 289 317 323 304 261 208 237 240 210 219 222 217 215 212 220 244 265 289 282 257 264 298 298 285 291 297 294 288 193 107 299 308 312 297 289 296 299 281 275 298 309
51 52 52 52 51 51 54 56 58 60 63 71 82 87 87 85 93 104 102 107 119 133 259 87 112 148 153 103 317 266 214 171 200 207 154 148 266 340 66 67 28 333 294 283 293 308 327 347 343 335 332 328 320 302 273 235 196 200 223 226 220 232 243 276 294 267 261 293 298 298 299 296 301 357 87 93 39 30 254 280 292 306 316 276 288 306 317
52 53 53 53 52 52 54 55 57 59 61 67 79 82 76 73 88 99 94 93 118 119 66 48 78 120 130 105 122 283 339 356 329 272 172 150 174 119 87 81 34 298 275 264 285 326 351 360 336 326 315 305 307 296 294 304 294 189 199 222 224 233 245 263 268 263 270 282 281 285 284 273 287 317 69 103 89 130 226 279 293 330 17 311 308 314 319
52 53 53 53 52 52 53 53 54 57 59 64 74 75 65 60 73 90 85 69 78 85 74 70 80 120 125 115 147 239 332 348 353 307 325 67 83 111 122 134 187 235 262 300 330 335 349 360 328 298 279 248 295 295 301 314 304 268 199 217 212 209 221 225 236 251 256 251 260 276 270 263 283 310 5 102 130 178 270 287 305 3 343 329 328 325 321
51 52 51 52 52 51 52 52 51 54 57 62 70 67 56 50 54 67 74 79 89 93 78 57 70 322 341 344 26 55 354 320 341 298 300 59 60 16 357 335 250 216 237 322 350 356 342 335 319 300 285 170 173 289 306 324 300 288 297 290 265 211 196 213 243 266 259 247 255 268 267 273 294 326 26 124 198 256 288 300 323 340 332 329 331 330 331
50 50 49 50 50 49 51 52 51 52 51 54 67 64 49 40 44 64 75 69 69 93 97 35 358 46 345 304 34 83 62 329 344 328 338 36 73 36 335 268 249 266 286 312 337 358 331 303 217 282 279 247 182 301 302 290 275 291 307 303 289 262 202 217 247 260 250 247 261 275 280 290 315 353 116 164 283 308 311 314 323 328 330 336 341 343 351
48 49 48 48 49 48 49 51 52 53 51 51 65 68 54 42 38 53 79 97 91 94 96 61 24 41 9 358 28 34 359 3 10 351 5 22 8 288 273 162 23 335 327 339 350 2 316 307 309 268 275 282 328 322 294 275 268 276 285 284 279 267 269 274 269 266 275 267 256 276 295 343 44 323 296 295 317 324 328 329 332 339 347 353 353 353 358
47 48 48 48 49 47 47 49 49 50 50 47 62 73 61 49 47 59 90 114 111 100 108 102 74 62 52 46 43 30 18 34 34 12 12 13 338 333 346 347 345 343 349 346 333 313 283 302 303 274 276 287 290 281 289 295 291 273 249 267 275 191 226 289 305 324 305 287 270 287 303 317 325 319 323 338 344 350 357 353 348 352 357 357 353 350 351
45 46 46 47 47 46 46 46 45 47 48 42 51 75 69 59 59 69 89 96 87 81 101 107 94 80 72 62 54 51 53 60 57 34 359 344 7 43 359 301 320 356 3 302 282 277 278 279 281 282 282 281 268 271 282 290 293 292 157 248 256 200 179 306 311 290 277 276 277 286 298 313 326 333 348 360 4 10 10 359 351 351 352 351 345 341 341
45 45 45 45 45 44 44 45 44 45 47 43 53 77 77 69 68 74 85 87 82 77 87 96 93 83 70 54 49 53 56 54 56 74 106 319 45 123 196 293 82 208 221 241 271 285 280 276 290 297 286 279 276 281 276 261 266 279 248 234 252 260 21 359 286 276 278 275 282 304 323 335 343 356 12 11 6 7 5 356 349 344 341 341 338 333 332
44 44 43 43 44 43 42 44 45 45 46 44 52 76 80 72 63 66 77 88 92 89 84 85 84 73 62 51 45 47 48 44 42 56 114 208 190 109 190 176 186 228 216 180 231 285 283 276 287 284 271 257 229 277 276 263 265 285 278 269 287 19 28 331 287 289 293 290 320 352 350 344 347 355 2 360 355 353 355 350 339 334 332 330 328 324 321
41 41 41 40 41 42 40 41 44 48 50 48 52 71 77 65 53 55 69 82 100 120 109 101 86 67 56 53 43 32 34 34 22 15 39 206 215 244 261 189 204 250 276 134 197 244 256 251 244 256 263 242 203 251 270 270 280 306 304 303 325 13 2 322 314 310 301 308 350 358 347 341 348 349 344 346 345 342 343 339 330 326 324 320 319 318 315
38 39 39 37 38 39 39 38 39 46 54 54 55 63 66 61 56 59 73 85 94 94 99 110 105 91 64 56 48 27 21 17 359 344 308 226 223 232 243 227 219 236 217 162 227 243 252 256 254 258 260 239 201 259 271 285 303 307 308 325 335 334 318 323 331 323 307 322 352 353 342 339 345 341 336 340 339 334 334 332 326 322 320 318 317 316 313
36 36 36 37 37 36 37 36 34 37 50 57 56 59 61 60 55 54 59 67 82 184 98 115 115 106 108 88 49 19 3 354 344 333 303 251 235 229 231 235 238 219 195 215 233 233 245 255 246 244 250 250 341 267 265 289 309 303 310 345 355 353 344 342 339 329 324 338 347 345 335 328 329 330 331 332 329 325 327 325 321 320 319 317 316 313 310
34 34 34 35 35 35 35 34 30 28 37 57 56 55 57 54 50 48 53 55 49 11 60 97 121 123 126 123 26 2 352 343 340 336 304 265 254 238 228 230 235 222 209 227 239 230 234 240 241 246 246 261 282 256 244 257 283 297 5 8 15 12 2 1 351 328 325 332 332 330 322 311 311 317 321 321 318 319 320 318 315 315 315 315 313 309 305
32 32 33 33 35 35 34 33 29 23 19 25 54 49 52 50 43 38 44 57 65 67 74 98 123 125 107 98 26 358 350 345 347 349 308 290 284 262 243 238 238 228 221 250 264 264 254 246 254 267 253 153 288 276 268 278 282 94 56 27 28 22 6 1 348 325 319 323 323 319 310 303 305 312 316 315 315 317 316 313 313 314 313 312 308 301 301
30 32 32 32 34 35 32 33 32 21 13 14 19 352 39 47 32 24 25 43 61 66 92 118 117 107 91 89 41 357 347 344 349 358 324 310 295 271 256 251 244 229 229 255 257 270 280 272 261 265 247 177 268 279 294 295 280 92 58 26 18 12 359 352 341 326 319 318 317 312 305 300 301 307 310 313 317 319 316 313 314 312 309 307 304 300 304
26 28 29 29 32 33 31 32 31 22 16 21 19 342 312 350 357 0 4 22 50 63 85 62 97 119 99 97 29 358 350 340 335 337 311 294 291 276 253 246 240 220 223 261 259 258 282 266 244 254 222 170 233 267 304 293 273 344 17 8 4 358 347 339 332 324 320 318 316 311 306 307 310 314 316 320 320 318 314 311 312 310 308 307 308 307 308
20 22 23 24 30 33 31 31 30 27 36 54 68 77 80 348 327 338 353 23 48 63 319 45 113 159 59 128 67 3 354 338 311 331 300 240 257 279 242 222 231 218 218 262 272 259 255 244 254 280 269 155 192 263 293 288 289 338 358 355 349 345 340 333 327 325 323 324 323 318 316 321 325 322 319 318 316 314 311 311 314 314 313 313 314 313 312
14 14 13 16 25 32 33 31 29 34 51 64 72 74 65 41 9 359 1 32 53 55 38 51 120 123 25 173 177 11 4 344 283 345 322 201 163 311 236 200 214 218 200 210 242 258 241 213 255 288 233 153 190 268 280 311 344 351 349 345 341 337 331 324 321 321 323 326 327 323 319 321 322 318 315 313 314 316 317 317 317 317 316 316 317 317 316
8 7 5 9 17 29 36 33 31 41 57 63 63 57 53 47 38 32 29 36 56 56 50 49 92 29 22 202 196 22 13 352 281 355 346 191 117 334 274 234 224 204 186 189 230 265 254 220 257 281 216 160 217 257 295 14 4 349 341 338 336 330 322 318 322 325 326 327 326 322 317 315 316 316 316 317 319 321 322 321 319 318 318 318 318 318 318
1 1 1 2 5 20 34 30 30 43 55 50 39 42 49 49 44 42 41 41 36 54 57 43 33 26 10 304 252 14 6 342 275 323 323 289 84 339 296 292 284 204 170 181 256 261 240 235 286 282 195 142 184 238 5 4 353 342 334 331 330 327 323 324 326 325 324 323 321 318 317 318 319 322 324 325 325 325 324 321 318 317 318 318 317 317 318
355 354 355 357 0 13 30 28 30 37 36 19 22 51 61 52 42 42 45 46 45 55 77 56 50 43 4 312 303 355 351 334 269 252 284 278 294 22 326 286 282 266 108 189 251 254 264 21 282 264 251 157 88 63 31 354 336 331 326 322 324 326 324 324 323 321 319 318 317 318 322 323 324 325 325 325 325 324 321 319 319 319 319 317 316 316 316
352 350 352 354 360 17 42 28 21 19 10 4 52 73 56 34 25 33 41 41 41 45 48 56 76 56 360 294 312 353 346 336 327 316 303 294 309 333 324 281 296 331 334 260 252 253 338 190 241 268 293 100 109 80 32 339 319 320 320 318 322 325 323 323 323 321 320 321 323 325 328 327 326 326 324 323 323 322 319 319 319 319 318 317 316 314 312
355 355 358 1 6 31 45 3 355 356 1 25 91 57 25 13 19 37 31 16 23 36 36 39 66 54 307 281 326 349 343 337 328 323 328 339 325 323 278 283 319 339 308 290 249 119 275 215 211 292 323 127 122 51 2 334 316 316 317 319 325 328 326 327 327 326 326 329 329 330 330 327 325 325 324 322 321 320 319 318 318 317 316 315 313 312 311
3 3 5 12 21 20 321 333 339 348 12 22 11 25 19 10 15 35 12 346 3 23 19 34 65 45 324 316 328 336 345 329 308 305 327 346 333 332 325 325 10 357 300 295 68 45 290 249 166 294 181 147 111 3 350 337 326 328 329 328 329 330 331 333 332 331 330 328 326 326 325 324 323 323 321 320 318 317 316 317 316 315 314 313 311 312 311
11 14 16 17 9 337 321 332 341 347 2 11 18 38 32 22 28 15 338 2 51 36 16 26 61 254 297 308 306 314 16 348 309 311 318 311 308 327 306 312 14 347 290 285 38 4 310 277 264 281 136 111 7 347 344 340 337 337 335 335 334 333 334 334 332 329 327 324 322 321 321 319 319 318 315 314 314 313 313 314 313 312 313 312 311 311 309
9 11 5 329 320 323 326 339 354 1 340 359 33 40 28 29 54 31 325 17 50 52 45 23 330 316 55 286 287 300 356 358 323 303 294 290 292 287 285 301 19 330 277 274 25 354 295 269 271 262 97 37 349 340 339 338 338 338 339 340 339 335 332 330 327 325 325 322 320 319 319 318 317 315 312 311 311 309 310 311 310 310 311 311 310 310 309
353 344 328 313 316 328 340 355 11 19 13 14 48 49 25 10 32 10 10 35 37 19 50 52 327 310 303 291 277 275 324 348 337 266 268 294 344 307 292 325 14 299 274 303 2 309 263 267 274 277 58 11 348 343 340 337 338 339 339 339 336 331 327 325 323 322 322 320 317 317 317 316 315 314 313 311 309 308 308 308 308 309 310 309 309 309 308
346 340 330 316 322 344 354 360 15 29 32 26 40 40 11 16 51 18 354 73 92 11 12 12 322 303 296 293 274 247 261 319 341 275 271 299 349 6 337 348 336 279 290 319 301 265 266 277 288 20 27 357 345 345 342 338 337 336 333 331 329 325 323 322 321 320 320 319 317 316 316 315 314 313 312 310 308 308 308 308 308 309 309 309 308 308 309
346 345 346 324 333 356 358 348 7 39 46 34 38 41 18 13 39 283 324 19 55 36 21 359 329 319 321 342 337 284 266 329 9 284 276 299 331 354 335 306 293 306 311 295 268 270 277 281 327 8 358 349 347 346 341 336 332 330 327 325 324 323 323 322 321 319 319 318 317 317 316 315 314 313 312 311 310 309 308 308 309 309 309 309 309 309 310
352 349 360 354 349 1 6 338 2 41 52 34 37 67 39 329 306 324 15 31 12 352 353 348 321 304 300 308 311 285 330 354 317 276 309 333 308 261 260 288 308 321 303 286 283 295 294 302 359 358 348 346 345 339 333 329 325 323 321 321 322 324 323 321 319 318 317 316 316 316 316 315 314 313 312 312 311 310 309 309 310 311 311 311 310 310 311
48 45 19 12 359 356 3 29 26 42 77 73 34 41 26 320 324 357 45 57 3 335 332 324 308 296 302 315 316 170 65 346 297 272 359 333 278 258 313 324 300 292 289 286 289 298 308 326 346 345 340 340 337 329 324 322 321 320 320 320 321 322 321 318 316 316 315 314 314 314 314 313 313 312 311 311 310 310 309 309 310 311 312 311 311 310 311
72 56 34 64 33 355 13 67 30 9 37 71 26 14 359 328 317 308 184 145 331 322 309 291 268 250 257 293 290 258 65 26 301 291 354 297 273 297 1 336 276 267 278 283 289 306 322 332 337 336 334 333 327 320 319 318 317 318 319 318 318 318 317 315 313 313 314 314 313 312 311 311 311 310 310 309 308 309 309 310 311 312 312 311 310 310 310
67 17 31 78 70 348 19 60 69 297 93 83 12 349 334 309 304 303 155 163 196 281 306 311 303 279 233 182 268 290 337 49 273 291 11 348 297 316 341 309 286 273 217 238 290 319 327 329 329 327 326 324 320 317 316 315 316 317 318 316 315 315 314 312 311 312 313 313 310 308 308 309 309 308 307 305 305 307 310 310 310 310 309 309 309 310 312
69 73 77 91 115 47 32 19 273 220 111 113 203 273 272 269 284 299 163 167 188 269 300 323 317 305 312 26 357 282 277 265 301 331 353 318 286 300 305 288 289 289 264 282 316 323 322 323 324 320 317 318 318 316 314 314 316 317 317 315 314 313 311 309 310 311 311 310 308 307 308 308 307 306 306 305 305 307 309 309 307 307 307 308 310 312 313
54 68 84 81 97 125 107 306 257 201 134 148 204 201 199 252 279 262 183 174 224 285 211 152 55 325 332 12 341 281 250 224 281 309 302 274 253 281 275 265 273 298 312 318 322 319 315 317 320 317 314 315 315 314 315 316 316 315 314 313 313 312 310 309 310 310 309 308 307 307 306 306 306 306 305 305 305 306 306 305 306 307 309 311 313 313 312
40 66 85 49 341 158 152 201 252 157 127 224 262 203 213 261 289 307 148 163 318 319 307 81 25 344 322 324 317 310 334 125 235 276 278 263 198 186 264 276 293 310 314 313 315 315 314 316 317 314 313 314 314 313 314 314 312 311 311 311 312 312 310 309 310 310 309 308 307 306 305 306 306 305 304 304 305 305 304 306 311 313 313 313 313 313 311
35 61 77 359 320 294 275 313 352 45 67 71 82 112 244 263 297 66 93 102 329 353 30 91 120 293 311 334 342 328 318 304 279 277 265 221 176 189 255 289 305 311 308 307 311 312 311 312 312 310 309 310 312 312 312 311 311 311 311 311 311 311 310 309 309 309 308 307 307 306 306 307 307 307 306 305 306 307 309 312 315 315 314 312 313 313 313